[[{"header":{"parameterUnit":"m.s-1","parameterCategory":1,"la1":30.2991,"la2":30.254,"lo1":-89.0895,"lo2":-89.0444,"dy":0.0017,"dx":0.0017,"nx":28,"ny":28,"refTime":"2024-12-18T09:00:00:Z","depth":0,"parameterNumber":2,"parameterNumberName":"U-component_of_WINDS"},"data":[0,0,0,0,0,0,0,0,0,0,0,0,0,0,0,0,0,0,0,0,0,0,0,0,0,0,0,0,0,0,0,0,0,0,0,0,0,0,0,0,0,0,0,0,0,0,0,0,0,0,0,0,0,0,0,0,0,0,0.9683,0.9683,0,0.9661,0.9661,0.966,0.9624,0.9623,0.9623,0.9622,0.9599,0.9599,0.9599,0,0,0,0,0,0,0,0,0,0,0,0,0,0.9695,0.9695,0.9683,0.9683,0.9683,0.9661,0.9661,0.966,0.9624,0.9623,0.9622,0.9622,0.9599,0.9599,0.9599,0,0,0,0,0,0,0,0,0,0,0,0,0,0.9683,0.9695,0.9683,0.9662,0.966,0.9661,0.9661,0.966,0.9624,0.9623,0.9622,0.9621,0.9599,0.9599,0.9599,0.962,0,0,0.9599,0.9599,0,0,0,0,0,0,0,0,0.9684,0.9683,0.9665,0.9663,0.9661,0.9644,0.9657,0.9647,0.9624,0.9638,0.9622,0.9621,0.9615,0.9614,0.9612,0.9619,0.9618,0.9599,0.9599,0.9599,0.96,0,0,0,0,0,0,0,0.9685,0.9684,0.9674,0.9665,0.9662,0.9654,0.9651,0.9654,0.9632,0.9636,0.9634,0.9632,0.9614,0.9612,0.9611,0.9617,0.9599,0.9599,0.96,0.96,0.9641,0.9642,0,0,0,0,0,0,0.9689,0.9684,0.9675,0.9674,0.967,0.9654,0.9651,0.9651,0.9632,0.9628,0.9633,0.963,0.9612,0.9611,0.961,0.9634,0.9599,0.96,0.96,0.964,0.9641,0.9643,0,0,0,0,0,0,0.9689,0.9688,0.9676,0.9678,0.9676,0.9655,0.9655,0.9651,0.9649,0.9629,0.9625,0.9635,0.9611,0.961,0.9618,0.9632,0.96,0.96,0.9639,0.964,0.9642,0.968,0,0,0,0,0,0,0.969,0.9689,0.9696,0.9679,0.9676,0.9684,0.9656,0.9651,0.9649,0.9645,0.963,0.9627,0.9611,0.9618,0.9618,0.9632,0.96,0.9637,0.964,0.9641,0.9678,0.9683,0.9688,0,0,0,0,0,0.969,0.9707,0.9696,0.9695,0.9685,0.9685,0.9683,0.9665,0.965,0.9658,0.9645,0.9627,0.9631,0.9619,0.9619,0.9633,0.9636,0.9639,0.9641,0.9675,0.9682,0.9688,0,0,0,0,0,0,0.9726,0.9705,0.9692,0.9704,0.9697,0.9679,0.9687,0.9672,0.9668,0.9665,0.9642,0.9639,0.965,0.9642,0.963,0.9652,0.9631,0.9633,0.9657,0.9663,0.9668,0.967,0.96,0,0,0,0,0,0.9736,0.9737,0.9718,0.9731,0.9728,0.9708,0.9708,0.9694,0.9685,0.9682,0.967,0.9662,0.9662,0.9662,0.966,0.9676,0.9673,0.9686,0.9691,0.9695,0.9698,0.9707,0.9712,0.9651,0.9651,0.9651,0,0,0.9755,0.9743,0.9746,0.9738,0.973,0.9733,0.9706,0.971,0.9712,0.9682,0.9689,0.968,0.967,0.9683,0.9688,0.9677,0.9714,0.9698,0.9702,0.9702,0.971,0.9716,0.9721,0.9652,0.9652,0.9652,0,0,0.9792,0.9783,0.9793,0.9786,0.9775,0.9763,0.9765,0.975,0.9743,0.9749,0.9728,0.973,0.9729,0.9723,0.972,0.9756,0.974,0.9756,0.9782,0.9792,0.9797,0.9801,0.9814,0.982,0.9759,0.9759,0.9759,0,0.9818,0.9821,0.98,0.9806,0.9803,0.9777,0.9787,0.9782,0.9771,0.977,0.9758,0.9757,0.9748,0.976,0.9769,0.9767,0.977,0.9758,0.9797,0.9801,0.9805,0.9818,0.9823,0.9761,0.9761,0.9761,0.976,0,0.9853,0.9856,0.9865,0.9856,0.9854,0.9862,0.9844,0.9845,0.9831,0.982,0.9828,0.9816,0.9812,0.9814,0.9801,0.9824,0.9817,0.9802,0.978,0.9814,0.9825,0.983,0.9764,0.9763,0.9763,0.9762,0,0,0.9912,0.9892,0.9896,0.9892,0.9878,0.988,0.9887,0.9884,0.9885,0.9879,0.9885,0.9885,0.9871,0.9868,0.9854,0.9862,0.9892,0.9845,0.9844,0.9855,0.9918,0.9931,0.9937,0.9881,0.9882,0.9882,0.9919,0,0.9947,0.9958,0.994,0.9955,0.9958,0.9934,0.994,0.9933,0.9923,0.9924,0.9912,0.9913,0.9894,0.9892,0.9898,0.9887,0.9905,0.9884,0.9887,0.9887,0.9891,0.9942,0.9955,0.9991,0.9924,0.9924,0.9925,0,0.9989,0.9985,1.0001,0.9988,0.9988,0.9994,0.999,0.9991,0.9982,0.9974,0.9971,0.9955,0.9961,0.994,0.995,0.9936,0.9936,0.9931,0.9932,0.9932,0.9909,0.9945,1.0001,1.0007,0.9932,0.9931,0.9931,0,1.0032,1.0031,1.004,1.0037,1.0021,1.0026,1.002,1.0011,1.001,1.0006,1.0006,1.0003,1.0002,1.0,0.9984,0.9969,0.9995,0.9972,0.999,0.999,0.9996,0.9996,1.0055,0.9996,0.9995,0.9995,0.9995,0,1.0073,1.0084,1.0059,1.0065,1.0077,1.0056,1.0069,1.006,1.0052,1.0056,1.0034,1.0039,1.0016,1.0019,1.0006,1.0016,1.0015,1.001,1.0006,1.0012,1.0013,1.0012,1.001,0.9997,0.9996,0.9996,0.9996,0,1.0123,1.0107,1.0116,1.01,1.0097,1.0106,1.0093,1.0098,1.0087,1.0092,1.0093,1.0075,1.0076,1.006,1.0058,1.0049,1.0066,1.0058,1.0069,1.0067,1.0085,1.0084,1.0145,1.0153,1.0088,1.0089,1.009,0,1.0151,1.0159,1.0144,1.0146,1.0141,1.0143,1.0142,1.0122,1.0123,1.0114,1.0121,1.012,1.0119,1.0123,1.011,1.0109,1.0101,1.0123,1.0101,1.0107,1.0103,1.0103,1.0104,1.0128,1.0129,1.0129,1.013,0,1.0203,1.0194,1.0194,1.0192,1.0191,1.0188,1.0184,1.0186,1.0165,1.0166,1.0168,1.0167,1.0165,1.0166,1.0162,1.0156,1.014,1.0137,1.0141,1.0147,1.0154,1.0151,1.0082,1.0136,1.0135,1.0135,1.0134,1.0134,1.0243,1.0249,1.024,1.0241,1.0236,1.0232,1.0236,1.0226,1.0226,1.0224,1.0212,1.0216,1.0208,1.0202,1.0197,1.02,1.019,1.0195,1.0197,1.0199,1.0203,1.0153,1.0199,1.0199,1.0199,1.0199,1.0199,0,1.0295,1.0288,1.0288,1.0283,1.0284,1.0268,1.0262,1.0264,1.0268,1.0262,1.0261,1.0264,1.0264,1.0251,1.0251,1.0255,1.0248,1.0256,1.0256,1.0255,1.0212,1.0209,1.0262,1.0262,1.0262,1.0262,1.0262,1.0262,1.0321,1.0331,1.0322,1.0329,1.0322,1.0326,1.0324,1.0321,1.0316,1.032,1.032,1.0312,1.0303,1.0302,1.0302,1.0298,1.0299,1.031,1.0304,1.0264,1.0258,1.0252,1.0249,1.031,1.031,1.0347,1.0347,1.0348]},{"header":{"parameterUnit":"m.s-1","parameterCategory":1,"la1":30.2991,"la2":30.254,"lo1":-89.0895,"lo2":-89.0444,"dy":0.0017,"dx":0.0017,"nx":28,"ny":28,"refTime":"2024-12-18T09:00:00:Z","depth":0,"parameterNumber":3,"parameterNumberName":"V-component_of_WINDS"},"data":[0,0,0,0,0,0,0,0,0,0,0,0,0,0,0,0,0,0,0,0,0,0,0,0,0,0,0,0,0,0,0,0,0,0,0,0,0,0,0,0,0,0,0,0,0,0,0,0,0,0,0,0,0,0,0,0,0,0,-2.5459,-2.5461,0,-2.5576,-2.5577,-2.5578,-2.5625,-2.5625,-2.5624,-2.5624,-2.5743,-2.5746,-2.5749,0,0,0,0,0,0,0,0,0,0,0,0,0,-2.5281,-2.5284,-2.5459,-2.5461,-2.5462,-2.5575,-2.5577,-2.5579,-2.5625,-2.5625,-2.5624,-2.5624,-2.5742,-2.5746,-2.575,0,0,0,0,0,0,0,0,0,0,0,0,0,-2.5374,-2.5285,-2.5459,-2.5499,-2.5504,-2.5575,-2.5577,-2.5579,-2.5625,-2.5625,-2.5624,-2.5624,-2.574,-2.5745,-2.575,-2.579,0,0,-2.5766,-2.5768,0,0,0,0,0,0,0,0,-2.5368,-2.538,-2.5492,-2.5496,-2.5502,-2.5585,-2.5558,-2.565,-2.5625,-2.5579,-2.5624,-2.5624,-2.5691,-2.57,-2.5723,-2.5796,-2.5801,-2.5766,-2.5769,-2.5772,-2.5773,0,0,0,0,0,0,0,-2.5362,-2.5375,-2.5505,-2.5493,-2.5499,-2.5512,-2.5525,-2.5575,-2.5636,-2.5583,-2.5587,-2.56,-2.5693,-2.5717,-2.5726,-2.5803,-2.5766,-2.5771,-2.5774,-2.5776,-2.592,-2.592,0,0,0,0,0,0,-2.5349,-2.537,-2.5502,-2.5509,-2.5433,-2.5516,-2.553,-2.5559,-2.5635,-2.5647,-2.56,-2.5601,-2.5709,-2.572,-2.573,-2.5785,-2.5772,-2.5776,-2.5779,-2.5919,-2.592,-2.5921,0,0,0,0,0,0,-2.5344,-2.536,-2.5497,-2.544,-2.5459,-2.5519,-2.5551,-2.5561,-2.5586,-2.5648,-2.5659,-2.5613,-2.5709,-2.5723,-2.5776,-2.5789,-2.5779,-2.5783,-2.5918,-2.5919,-2.592,-2.5892,0,0,0,0,0,0,-2.5339,-2.5358,-2.5373,-2.544,-2.5462,-2.554,-2.5552,-2.5564,-2.5594,-2.5597,-2.5664,-2.5674,-2.571,-2.5768,-2.5781,-2.5796,-2.5787,-2.5917,-2.5919,-2.592,-2.5892,-2.5892,-2.5892,0,0,0,0,0,-2.5333,-2.5359,-2.5373,-2.5389,-2.5481,-2.5541,-2.5553,-2.5593,-2.5595,-2.5612,-2.5653,-2.5672,-2.5786,-2.5773,-2.5788,-2.5805,-2.5916,-2.5918,-2.592,-2.5892,-2.5892,-2.5892,0,0,0,0,0,0,-2.5291,-2.5369,-2.5385,-2.5434,-2.5481,-2.5548,-2.5569,-2.5591,-2.5638,-2.5638,-2.5687,-2.5702,-2.5751,-2.5784,-2.5768,-2.585,-2.5853,-2.5858,-2.5827,-2.5827,-2.5827,-2.5818,-2.5792,0,0,0,0,0,-2.5287,-2.5328,-2.5395,-2.5432,-2.5454,-2.5508,-2.5535,-2.5563,-2.5613,-2.5632,-2.5677,-2.5725,-2.5772,-2.5801,-2.5848,-2.5898,-2.5914,-2.5917,-2.5917,-2.5917,-2.592,-2.5952,-2.5955,-2.5926,-2.5926,-2.5926,0,0,-2.528,-2.5328,-2.5351,-2.5425,-2.5464,-2.5507,-2.5524,-2.5567,-2.56,-2.5639,-2.5692,-2.5727,-2.5784,-2.5837,-2.5862,-2.5865,-2.5932,-2.5919,-2.5918,-2.5922,-2.5954,-2.5957,-2.5959,-2.5927,-2.5927,-2.5927,0,0,-2.5289,-2.5329,-2.5366,-2.5406,-2.5465,-2.5502,-2.5511,-2.5576,-2.5601,-2.5656,-2.5687,-2.5727,-2.5806,-2.5847,-2.5877,-2.5907,-2.5928,-2.5921,-2.5921,-2.5951,-2.5954,-2.5956,-2.5968,-2.5972,-2.5924,-2.5924,-2.5924,0,-2.5273,-2.5338,-2.5382,-2.5425,-2.5458,-2.5497,-2.5536,-2.5572,-2.5643,-2.5666,-2.5669,-2.5772,-2.5812,-2.5876,-2.5884,-2.5907,-2.5921,-2.5913,-2.595,-2.5952,-2.5955,-2.5967,-2.5972,-2.5923,-2.5923,-2.5923,-2.5924,0,-2.5316,-2.5361,-2.5384,-2.5453,-2.5489,-2.5529,-2.5581,-2.5612,-2.5638,-2.5675,-2.5732,-2.5783,-2.5842,-2.586,-2.5884,-2.5929,-2.5929,-2.594,-2.5944,-2.5956,-2.5968,-2.5973,-2.5922,-2.5922,-2.5922,-2.5923,0,0,-2.5299,-2.5395,-2.5403,-2.5437,-2.5507,-2.5544,-2.5588,-2.5646,-2.5673,-2.5722,-2.5761,-2.583,-2.5842,-2.5877,-2.5907,-2.5934,-2.5958,-2.5943,-2.5945,-2.5945,-2.6012,-2.6003,-2.6008,-2.5972,-2.5973,-2.5974,-2.6008,0,-2.5318,-2.5398,-2.5441,-2.5503,-2.5546,-2.5586,-2.5625,-2.5674,-2.571,-2.5754,-2.5795,-2.5843,-2.5854,-2.5876,-2.5905,-2.5948,-2.5972,-2.5947,-2.601,-2.6012,-2.5994,-2.6014,-2.6004,-2.6033,-2.6013,-2.6014,-2.6014,0,-2.535,-2.54,-2.5467,-2.5537,-2.5557,-2.559,-2.565,-2.569,-2.5748,-2.5773,-2.5814,-2.5845,-2.5895,-2.5896,-2.5967,-2.5949,-2.5979,-2.6005,-2.6007,-2.6014,-2.6013,-2.6022,-2.6043,-2.6047,-2.6022,-2.6021,-2.6021,0,-2.5332,-2.5417,-2.5469,-2.5496,-2.5578,-2.5601,-2.5637,-2.5694,-2.5728,-2.578,-2.5803,-2.586,-2.5892,-2.5936,-2.5982,-2.5979,-2.605,-2.6054,-2.6073,-2.6072,-2.6085,-2.6083,-2.6111,-2.6103,-2.6103,-2.6103,-2.6103,0,-2.5349,-2.5389,-2.5462,-2.5494,-2.5541,-2.5591,-2.5637,-2.5675,-2.5726,-2.5768,-2.5806,-2.5844,-2.5903,-2.5949,-2.5986,-2.6041,-2.6054,-2.6077,-2.6086,-2.6074,-2.6071,-2.6093,-2.6092,-2.6104,-2.6104,-2.6104,-2.6104,0,-2.5336,-2.5387,-2.5446,-2.552,-2.554,-2.5571,-2.5635,-2.5669,-2.5709,-2.5761,-2.5776,-2.584,-2.5896,-2.5948,-2.6022,-2.6048,-2.6103,-2.6115,-2.6084,-2.6089,-2.6105,-2.6103,-2.6148,-2.6157,-2.6143,-2.6143,-2.6143,0,-2.5343,-2.5375,-2.5453,-2.5484,-2.5519,-2.5568,-2.5604,-2.5656,-2.5692,-2.5762,-2.5788,-2.5848,-2.5898,-2.5987,-2.604,-2.6099,-2.6113,-2.6124,-2.6121,-2.6109,-2.6114,-2.6112,-2.6116,-2.6123,-2.6123,-2.6123,-2.6123,0,-2.5351,-2.5376,-2.5425,-2.5485,-2.5527,-2.5576,-2.5627,-2.565,-2.5713,-2.5751,-2.5811,-2.585,-2.5928,-2.5988,-2.6053,-2.6091,-2.6118,-2.6124,-2.6132,-2.6119,-2.61,-2.6112,-2.6083,-2.6122,-2.6122,-2.6123,-2.6123,-2.6123,-2.5349,-2.5381,-2.5442,-2.5497,-2.5541,-2.5589,-2.5625,-2.5671,-2.5721,-2.5789,-2.5818,-2.5878,-2.5939,-2.603,-2.6068,-2.6117,-2.6122,-2.6133,-2.6136,-2.6138,-2.6136,-2.6093,-2.6129,-2.6129,-2.613,-2.613,-2.613,0,-2.536,-2.5402,-2.5453,-2.5523,-2.5568,-2.5591,-2.5649,-2.5685,-2.5738,-2.5792,-2.5842,-2.5912,-2.5972,-2.6031,-2.6094,-2.6122,-2.6137,-2.6137,-2.6135,-2.6144,-2.6127,-2.6115,-2.6125,-2.6125,-2.6125,-2.6125,-2.6125,-2.6125,-2.5371,-2.5426,-2.5458,-2.5537,-2.558,-2.564,-2.5671,-2.5717,-2.5761,-2.5837,-2.5887,-2.5926,-2.5983,-2.6052,-2.6108,-2.6124,-2.6146,-2.6143,-2.6163,-2.6145,-2.6145,-2.6145,-2.6133,-2.6147,-2.6147,-2.6176,-2.6176,-2.6176]}]]